Weather History for PHNL - March, 2013

Change the Weather History Date:

Sunday, March 3, 2013

  Actual Average Record
Temperature  
Mean Temperature 75 °F 74 °F  
Max Temperature 80 °F 81 °F 86 °F (1977)
Min Temperature 69 °F 67 °F 58 °F (1991)
Degree Days  
Heating Degree Days 0 0  
Month to date heating degree days 0 0  
Since 1 July heating degree days 0 0  
Cooling Degree Days 10 9  
Month to date cooling degree days 32 26  
Year to date cooling degree days 530 508  
Growing Degree Days 24 (Base 50)    
Moisture  
Dew Point 54 °F    
Average Humidity 50    
Maximum Humidity 61    
Minimum Humidity 39    
Precipitation  
Precipitation 0.00 in 0.07 in 2.14 in (1996)
Month to date precipitation T 0.20  
Year to date precipitation 3.07 4.50  
Snow  
Snow 0.00 in - - ()
Month to date snowfall 0.0  
Since 1 July snowfall 0.0  
Snow Depth 0.00 in    
Sea Level Pressure  
Sea Level Pressure 30.15 in    
Wind  
Wind Speed 16 mph (NE)    
Max Wind Speed 25 mph    
Max Gust Speed 33 mph    
Visibility 10 miles    
Events      
T = Trace of Precipitation, MM = Missing Value Source: NWS Daily Summary

Daily Weather History Graph

Daily Weather History Graph

Search for Another Location

Airport or City:

Trip Planner

Search our weather history database for the weather conditions in past years. The results will help you decide how hot, cold, wet, or windy it might be!

Date:

Astronomy

Mar. 03, 2013 Rise Set
Actual Time 6:50 AM HST 6:37 PM HST
Civil Twilight 6:27 AM HST 6:59 PM HST
Nautical Twilight 6:02 AM HST 7:25 PM HST
Astronomical Twilight 5:36 AM HST 7:50 PM HST
Moon No Moon Rise 11:04 AM HST (3/3)
Length of Visible Light 12h 31m
Length of Day
11h 46m
Waning Gibbous, 61% of the Moon is Illuminated
Mar 3
Waning Gibbous
Mar 4
Last Quarter
Mar 11
New
Mar 19
First Quarter
Mar 26
Full

Hourly Weather History & Observations

Time (HST) Temp. Dew Point Humidity Pressure Visibility Wind Dir Wind Speed Gust Speed Precip Events Conditions
12:53 AM 72.0 °F 55.0 °F 55% 30.19 in 10.0 mi NE 11.5 mph - N/A   Scattered Clouds
1:53 AM 72.0 °F 53.1 °F 51% 30.17 in 10.0 mi NE 9.2 mph 19.6 mph N/A   Mostly Cloudy
2:53 AM 71.1 °F 53.1 °F 53% 30.14 in 10.0 mi ENE 18.4 mph 25.3 mph N/A   Partly Cloudy
3:53 AM 70.0 °F 51.1 °F 51% 30.13 in 10.0 mi NE 9.2 mph - N/A   Partly Cloudy
4:53 AM 70.0 °F 53.1 °F 55% 30.12 in 10.0 mi ENE 11.5 mph - N/A   Scattered Clouds
5:53 AM 71.1 °F 53.1 °F 53% 30.13 in 10.0 mi ENE 18.4 mph 25.3 mph N/A   Scattered Clouds
6:53 AM 71.1 °F 52.0 °F 51% 30.14 in 10.0 mi ENE 18.4 mph 25.3 mph N/A   Mostly Cloudy
7:53 AM 72.0 °F 55.0 °F 55% 30.16 in 10.0 mi ENE 18.4 mph - N/A   Mostly Cloudy
8:53 AM 73.0 °F 55.0 °F 53% 30.17 in 10.0 mi ENE 21.9 mph 28.8 mph N/A   Mostly Cloudy
9:53 AM 77.0 °F 51.1 °F 40% 30.18 in 10.0 mi NE 13.8 mph 29.9 mph N/A   Scattered Clouds
10:53 AM 78.1 °F 55.0 °F 45% 30.18 in 10.0 mi ENE 18.4 mph 26.5 mph N/A   Scattered Clouds
11:53 AM 78.1 °F 54.0 °F 43% 30.17 in 10.0 mi ENE 17.3 mph 25.3 mph N/A   Mostly Cloudy
12:53 PM 79.0 °F 55.0 °F 44% 30.15 in 10.0 mi ENE 18.4 mph 28.8 mph N/A   Mostly Cloudy
1:53 PM 78.1 °F 51.1 °F 39% 30.13 in 10.0 mi ENE 20.7 mph 28.8 mph N/A   Mostly Cloudy
2:53 PM 78.1 °F 51.1 °F 39% 30.12 in 10.0 mi NE 18.4 mph 27.6 mph N/A   Scattered Clouds
3:53 PM 78.1 °F 51.1 °F 39% 30.12 in 10.0 mi NE 17.3 mph 27.6 mph N/A   Partly Cloudy
4:53 PM 77.0 °F 54.0 °F 45% 30.12 in 10.0 mi ENE 18.4 mph 28.8 mph N/A   Partly Cloudy
5:53 PM 73.9 °F 57.9 °F 57% 30.12 in 10.0 mi NE 17.3 mph - N/A   Partly Cloudy
6:53 PM 73.0 °F 57.0 °F 57% 30.14 in 10.0 mi NE 13.8 mph 19.6 mph N/A   Partly Cloudy
7:53 PM 73.0 °F 57.9 °F 59% 30.16 in 10.0 mi NE 11.5 mph - N/A   Scattered Clouds
8:53 PM 72.0 °F 57.9 °F 61% 30.16 in 10.0 mi NE 11.5 mph - N/A   Partly Cloudy
9:53 PM 72.0 °F 57.0 °F 59% 30.18 in 10.0 mi ENE 16.1 mph 21.9 mph N/A   Partly Cloudy
10:53 PM 72.0 °F 55.9 °F 57% 30.18 in 10.0 mi NE 10.4 mph 23.0 mph N/A   Scattered Clouds
11:53 PM 72.0 °F 54.0 °F 53% 30.17 in 10.0 mi NE 18.4 mph - N/A   Mostly Cloudy